Location: Gwatt
(46.7204°N, 7.6223°E)
Time: 17:28:47
(UTC+00:00)

Cosmos 1939 Rocket - Pass Details

Date: 18 September 2020
Orbit: 530 x 586 km, 97.4° (Epoch: 30 October)

Event Time Altitude Azimuth Distance (km) Brightness Sun altitude
Rises 18:06:36 0° 182° (S) 2,780 6.3 -6.3°
Reaches altitude 10° 18:08:49 10° 189° (S) 1,893 5.6 -6.7°
Maximum altitude 18:12:45 44° 262° (W) 817 4.3 -7.3°
Drops below altitude 10° 18:16:45 10° 335° (NNW) 1,920 6.1 -8.0°
Sets 18:19:01 0° 342° (NNW) 2,826 6.9 -8.4°
